This is the latest recevied weather packets stored in our database for station/object KD4EG. If no packets are shown the sender has not sent any weather packets the latest 10 day(s).
| Time | Temp. | Humidity | Pressure | Rain* | Wind** | Luminosity | Snow |
|---|---|---|---|---|---|---|---|
| 1777227849 | 13.89° C | 89% | 1019.3 hPa | 0 mm | - | 118 W/m² | - |
| 1777227547 | 13.89° C | 89% | 1019.3 hPa | 0 mm | - | 184 W/m² | - |
| 1777227241 | 13.89° C | 90% | 1019.4 hPa | 0 mm | - | 164 W/m² | - |
| 1777226939 | 14.44° C | 89% | 1019.4 hPa | 0 mm | - | 163 W/m² | - |
| 1777226637 | 14.44° C | 89% | 1019.5 hPa | 0 mm | - | 254 W/m² | - |
| 1777226333 | 15° C | 89% | 1019.3 hPa | 0 mm | - | 242 W/m² | - |
| 1777226029 | 15° C | 89% | 1019.4 hPa | 0 mm | - | 297 W/m² | - |
| 1777225725 | 15° C | 89% | 1019.3 hPa | 0 mm | - | 285 W/m² | - |
| 1777225422 | 14.44° C | 89% | 1019.3 hPa | 0 mm | - | 351 W/m² | - |
| 1777225119 | 14.44° C | 90% | 1019.4 hPa | 0 mm | - | 258 W/m² | - |
| 1777224816 | 14.44° C | 89% | 1018.9 hPa | 0 mm | - | 258 W/m² | - |
| 1777224512 | 14.44° C | 90% | 1019 hPa | 0 mm | - | 220 W/m² | - |
| 1777224207 | 14.44° C | 90% | 1019.4 hPa | 0 mm | - | 229 W/m² | - |
| 1777223905 | 14.44° C | 91% | 1019 hPa | 0 mm | - | 237 W/m² | - |
| 1777223601 | 14.44° C | 91% | 1019.3 hPa | 0 mm | - | 192 W/m² | - |
| 1777223297 | 14.44° C | 92% | 1019.2 hPa | 0 mm | - | 157 W/m² | - |
| 1777222995 | 13.89° C | 93% | 1019.2 hPa | 0 mm | - | 137 W/m² | - |
| 1777222693 | 13.89° C | 92% | 1019.4 hPa | 0 mm | - | 104 W/m² | - |
| 1777222389 | 13.89° C | 93% | 1019 hPa | 0 mm | - | 76 W/m² | - |
| 1777222087 | 13.89° C | 93% | 1019.2 hPa | 0 mm | - | 117 W/m² | - |
| 1777221784 | 13.89° C | 93% | 1018.9 hPa | 0 mm | - | 112 W/m² | - |
| 1777221480 | 13.89° C | 93% | 1018.8 hPa | 0 mm | - | 101 W/m² | - |
| 1777221178 | 13.89° C | 92% | 1019 hPa | 0 mm | - | 118 W/m² | - |
| 1777220873 | 14.44° C | 92% | 1018.9 hPa | 0 mm | - | 119 W/m² | - |
| 1777220569 | 14.44° C | 92% | 1018.6 hPa | 0 mm | - | 180 W/m² | - |
* Rain latest hour (hover to see other rain measurements)
** Current wind speed in m/s (hover to see current wind gust speed)